Paso Robles, CA

6:13 PM PST on February 06, 2016 (GMT -0800)
Paso Robles Municipal

Weather History for KPRB - March, 2015

Change the Weather History Date:

Tuesday, March 10, 2015

  Actual Average Record
Temperature  
Mean Temperature 60 °F 53 °F  
Max Temperature 79 °F 66 °F 82 °F (1997)
Min Temperature 40 °F 40 °F 27 °F (2009)
Degree Days  
Heating Degree Days 5 12  
Month to date heating degree days 102 126  
Since 1 July heating degree days 1462 2219  
Cooling Degree Days 0 0  
Month to date cooling degree days 0 0  
Year to date cooling degree days 0 0  
Growing Degree Days 10 (Base 50)    
Moisture  
Dew Point 43 °F    
Average Humidity 56    
Maximum Humidity 89    
Minimum Humidity 22    
Precipitation  
Precipitation 0.00 in 0.10 in 5.47 in (1995)
Month to date precipitation 0.02 0.97  
Year to date precipitation 2.33 6.31  
Sea Level Pressure  
Sea Level Pressure 29.96 in    
Wind  
Wind Speed 3 mph (South)    
Max Wind Speed 14 mph    
Max Gust Speed 19 mph    
Visibility 10 miles    
Events      
T = Trace of Precipitation, MM = Missing Value Source: NWS Daily Summary

Daily Weather History Graph

Daily Weather History Graph

Search for Another Location

Airport or City:

Trip Planner

Search our weather history database for the weather conditions in past years. The results will help you decide how hot, cold, wet, or windy it might be!

Date:

Astronomy

Mar. 10, 2015 Rise Set
Actual Time 7:20 AM PDT 7:05 PM PDT
Civil Twilight 6:55 AM PDT 7:31 PM PDT
Nautical Twilight 6:25 AM PDT 8:00 PM PDT
Astronomical Twilight 5:55 AM PDT 8:30 PM PDT
Moon 11:50 PM PDT (3/10) 10:00 AM PDT (3/10)
Length of Visible Light 12h 36m
Length of Day
11h 45m
Waning Gibbous, 78% of the Moon is Illuminated
Mar 10
Waning Gibbous
Mar 13
Last Quarter
Mar 20
New
Mar 27
First Quarter
Apr 4
Full

Hourly Weather History & Observations

Time (PDT) Temp. Windchill Dew Point Humidity Pressure Visibility Wind Dir Wind Speed Gust Speed Precip Events Conditions
12:53 AM 48.9 °F - 43.0 °F 80% 29.95 in 10.0 mi Calm Calm - N/A   Clear
1:53 AM 46.9 °F - 42.1 °F 83% 29.95 in 10.0 mi Calm Calm - N/A   Clear
2:53 AM 46.9 °F - 42.1 °F 83% 29.94 in 10.0 mi Calm Calm - N/A   Clear
3:53 AM 45.0 °F - 39.9 °F 82% 29.93 in 10.0 mi Calm Calm - N/A   Clear
4:53 AM 44.1 °F - 39.0 °F 82% 29.93 in 10.0 mi Calm Calm - N/A   Clear
5:53 AM 43.0 °F 41.3 °F 39.0 °F 86% 29.94 in 10.0 mi SSE 3.5 mph - N/A   Clear
6:53 AM 41.0 °F - 37.0 °F 86% 29.96 in 10.0 mi Calm Calm - N/A   Clear
7:53 AM 41.0 °F - 37.9 °F 89% 29.98 in 10.0 mi Calm Calm - N/A   Clear
8:53 AM 46.9 °F - 42.1 °F 83% 29.99 in 10.0 mi Calm Calm - N/A   Clear
9:53 AM 52.0 °F - 45.0 °F 77% 30.00 in 10.0 mi Calm Calm - N/A   Clear
10:53 AM 59.0 °F - 46.9 °F 64% 29.99 in 10.0 mi Calm Calm - N/A   Clear
11:53 AM 63.0 °F - 46.9 °F 56% 29.97 in 10.0 mi WSW 4.6 mph - N/A   Clear
12:53 PM 70.0 °F - 48.0 °F 46% 29.96 in 10.0 mi Calm Calm - N/A   Clear
1:53 PM 73.9 °F - 44.1 °F 34% 29.94 in 10.0 mi Calm Calm - 0.00 in   Clear
2:53 PM 77.0 °F - 46.9 °F 34% 29.93 in 10.0 mi Variable 3.5 mph - N/A   Clear
3:53 PM 79.0 °F - 41.0 °F 26% 29.92 in 10.0 mi WSW 10.4 mph - N/A   Clear
4:53 PM 77.0 °F - 36.0 °F 23% 29.92 in 10.0 mi SW 8.1 mph - N/A   Clear
5:53 PM 73.9 °F - 37.9 °F 27% 29.94 in 10.0 mi SW 10.4 mph - N/A   Clear
6:53 PM 68.0 °F - 46.0 °F 45% 29.94 in 10.0 mi SSW 6.9 mph - N/A   Clear
7:53 PM 63.0 °F - 46.9 °F 56% 29.97 in 10.0 mi SSE 5.8 mph - N/A   Clear
8:53 PM 62.1 °F - 46.9 °F 58% 29.99 in 10.0 mi South 4.6 mph - N/A   Clear
9:53 PM 61.0 °F - 46.9 °F 60% 30.00 in 10.0 mi SSE 5.8 mph - N/A   Clear
10:53 PM 59.0 °F - 48.0 °F 67% 30.01 in 10.0 mi SE 5.8 mph - N/A   Clear
11:53 PM 59.0 °F - 48.0 °F 67% 30.00 in 10.0 mi South 4.6 mph - N/A   Clear